Home   Weather   Angels Camp   Past weeks

Flag for USA Past Weather in Angels Camp, California, USA — Yesterday and Last 2 Weeks

Now
62 °F

Clear.


Feels Like: 62 °F
Forecast: 58 / 98 °F
Wind: No wind

Location: Modesto City-County-Sham Field

Current Time: Sep 26, 2016 at 6:54:58 AM

Latest Report: Sep 26, 2016 at 5:53 AM


Visibility: 10 mi

Pressure: 29.98 "Hg

Humidity: 73%

Dew Point: 53 °F

Location of Angels CampLocation

Past Weather in Angels Camp — Graph

°F

Angels Camp Temperature Yesterday

Maximum temperature yesterday: 93 °F (at 3:53 PM)
Minimum temperature yesterday: 58 °F (at 6:53 AM)
Average temperature yesterday: 75 °F

High & Low Weather Summary for the Past Weeks

 TemperatureHumidityPressure
High101 °F (Sep 19, 3:53 PM)83% (Sep 13, 5:53 AM)30.12 "Hg (Sep 13, 5:53 AM)
Low52 °F (Sep 13, 4:53 AM)10% (Sep 21, 3:53 PM)29.75 "Hg (Sep 12, 5:53 PM)
Average73 °F44%29.94 "Hg
* Reported Sep 11 5:53 AM — Sep 26 5:53 AM, Angels Camp, Weather by CustomWeather, © 2016

Note: Actual official high and low records may vary slightly from our data, if they occured in-between our weather recording intervals... More about our weather records

Advertising

Angels Camp Weather History for the Previous 24 Hours

Scroll right to see more
 ConditionsComfort  
Time TempWeatherWind HumidityBarometerVisibility
5:53 AM
Mon, Sep 26
62 °FClear.No wind73%29.98 "Hg10 mi
4:53 AM63 °FClear.No wind68%29.96 "Hg10 mi
3:53 AM65 °FClear.No wind63%29.94 "Hg10 mi
2:53 AM66 °FClear.6 mph63%29.95 "Hg10 mi
1:53 AM67 °FClear.6 mph63%29.96 "Hg10 mi
12:53 AM66 °FClear.6 mph68%29.95 "Hg10 mi
11:53 PM
Sun, Sep 25
67 °FClear.5 mph71%29.95 "Hg10 mi
10:53 PM68 °FClear.3 mph61%29.95 "Hg10 mi
9:53 PM73 °FClear.No wind50%29.96 "Hg10 mi
8:53 PM77 °FClear.No wind44%29.96 "Hg10 mi
7:53 PM78 °FClear.No wind39%29.95 "Hg10 mi
6:53 PM87 °FSunny.No wind28%29.95 "Hg10 mi
5:53 PM93 °FScattered clouds.5 mph19%29.95 "Hg10 mi
4:53 PM93 °FPartly sunny.3 mph18%29.96 "Hg10 mi
3:53 PM93 °FPassing clouds.3 mph19%29.98 "Hg10 mi
2:53 PM92 °FSunny.3 mph18%29.99 "Hg10 mi
1:53 PM90 °FSunny.3 mph23%30.02 "Hg10 mi
12:53 PM87 °FSunny.6 mph25%30.04 "Hg10 mi
11:53 AM83 °FSunny.6 mph30%30.06 "Hg10 mi
10:53 AM80 °FSunny.No wind34%30.07 "Hg10 mi
9:53 AM74 °FSunny.6 mph40%30.08 "Hg10 mi
8:53 AM69 °FSunny.5 mph49%30.07 "Hg10 mi
7:53 AM62 °FSunny.3 mph67%30.05 "Hg10 mi
6:53 AM58 °FClear.No wind81%30.03 "Hg10 mi
Weather by CustomWeather, © 2016

See weather overviewHow to use our weather pages